Sombrero Key, FL current weather conditions

sailwx.info

Wind from 330 at 6 knots gusting 9

Air temperature 24.2° C
Dewpoint 16.9° C

Last reported at 2019-Nov-19 15:00 UTC.
Time now 2019-Nov-19 15:32 UTC

Location: N 24°38' W 081°07'.
View on Google Maps.

See reports from other nearby stations

  
Tides and Currents Weather Stations Pressure Air Temp Water Temp Dewpoint Dewpoint Depression Visibility Wind Speed Wind Dir Waves Ship Positions
date/time (UTC)wind fromknots sea level pressurealtimeterstation pressurevisibilityair tempwater tempwave heightnotes
2019-Nov-19 15:00 330 6 gusting 9 24.2
2019-Nov-19 14:50 330 7 gusting 9 24.2
2019-Nov-19 14:40 330 8 gusting 9 24.2
2019-Nov-19 14:30 330 6 gusting 9 24.3
2019-Nov-19 14:20 340 6 gusting 9 24.3
2019-Nov-19 14:10 320 6 gusting 8 24.3
2019-Nov-19 14:00 310 6 gusting 6 24.3
2019-Nov-19 13:50 310 6 gusting 7 24.3
2019-Nov-19 13:40 310 6 gusting 8 24.3
2019-Nov-19 13:30 320 5 gusting 9 24.3
2019-Nov-19 13:20 310 5 gusting 7 24.4
2019-Nov-19 13:10 320 7 gusting 12 24.3
2019-Nov-19 13:00 320 9 gusting 13 24.3
2019-Nov-19 12:50 310 8 gusting 13 24.3
2019-Nov-19 12:40 310 7 gusting 12 24.3
2019-Nov-19 12:30 320 7 gusting 12 24.2
2019-Nov-19 12:20 320 8 gusting 12 24.2
2019-Nov-19 12:10 330 9 gusting 13 24.1
2019-Nov-19 12:00 320 12 gusting 14 24.2
2019-Nov-19 11:50 310 11 gusting 13 24.2
2019-Nov-19 11:40 320 9 gusting 13 24.2
2019-Nov-19 11:30 320 11 gusting 13 24.2
2019-Nov-19 11:20 320 12 gusting 13 24.2
2019-Nov-19 11:10 320 12 gusting 13 24.2
2019-Nov-19 11:00 310 12 gusting 13 24.1
2019-Nov-19 10:50 310 11 gusting 13 24.3
2019-Nov-19 10:40 310 9 gusting 13 24.2
2019-Nov-19 10:30 300 11 gusting 14 24.2
2019-Nov-19 10:20 300 11 gusting 13 24.3
2019-Nov-19 10:10 290 9 gusting 13 24.3
2019-Nov-19 10:00 300 11 gusting 13 24.3
2019-Nov-19 09:50 300 11 gusting 13 24.3
2019-Nov-19 09:40 290 9 gusting 13 24.3
2019-Nov-19 09:30 280 12 gusting 14 24.2
2019-Nov-19 09:20 270 12 gusting 15 24.3
2019-Nov-19 09:10 270 11 gusting 17 24.4
2019-Nov-19 09:00 270 11 gusting 13 24.3
2019-Nov-19 08:50 270 11 gusting 14 24.3
2019-Nov-19 08:40 270 11 gusting 13 24.3
2019-Nov-19 08:30 270 12 gusting 14 24.3
2019-Nov-19 08:20 270 12 gusting 15 24.5
2019-Nov-19 08:10 270 13 gusting 15 24.3
2019-Nov-19 08:00 280 12 gusting 18 24.4
2019-Nov-19 07:50 280 13 gusting 15 24.4
2019-Nov-19 07:40 280 13 gusting 17 24.5
2019-Nov-19 07:30 270 14 gusting 20 24.6
2019-Nov-19 07:20 280 13 gusting 18 24.5
2019-Nov-19 07:10 280 13 gusting 18 24.4
2019-Nov-19 07:00 270 13 gusting 19 24.4
2019-Nov-19 06:50 280 14 gusting 20 24.4
2019-Nov-19 06:40 270 13 gusting 19 24.4
2019-Nov-19 06:30 270 13 gusting 17 24.4
2019-Nov-19 06:20 270 13 gusting 18 24.4
2019-Nov-19 06:10 270 12 gusting 15 24.5
2019-Nov-19 06:00 270 13 gusting 17 24.4
2019-Nov-19 05:50 270 13 gusting 15 24.4
2019-Nov-19 05:40 270 13 gusting 18 24.5
2019-Nov-19 05:30 260 13 gusting 15 24.5
2019-Nov-19 05:20 270 13 gusting 17 24.4
2019-Nov-19 05:10 250 12 gusting 15 24.3
2019-Nov-19 05:00 250 12 gusting 14 24.2
2019-Nov-19 04:50 240 11 gusting 14 24.2
2019-Nov-19 04:40 240 8 gusting 12 24.0
2019-Nov-19 04:30 250 7 gusting 12 23.8
2019-Nov-19 04:20 230 6 gusting 12 23.6
2019-Nov-19 04:10 230 6 gusting 8 23.3
2019-Nov-19 04:00 240 1 gusting 5 23.0
2019-Nov-19 03:50 230 2 gusting 5 22.9
2019-Nov-19 03:40 220 1 gusting 5 22.6
2019-Nov-19 03:30 220 1 gusting 4 22.3
2019-Nov-19 03:20 160 0 gusting 1 22.2
2019-Nov-19 03:10 22.1
2019-Nov-19 03:00 050 0 gusting 1 22.1
2019-Nov-19 02:50 050 0 gusting 2 22.0
2019-Nov-19 02:40 030 2 gusting 5 22.0
2019-Nov-19 02:30 030 2 gusting 5 21.9
2019-Nov-19 02:20 040 2 gusting 4 21.8
2019-Nov-19 02:10 020 2 gusting 6 21.8
2019-Nov-19 02:00 030 2 gusting 5 21.8
2019-Nov-19 01:50 020 4 gusting 6 21.9
2019-Nov-19 01:40 020 4 gusting 6 21.9
2019-Nov-19 01:30 020 4 gusting 6 22.0
2019-Nov-19 01:20 030 2 gusting 5 22.0
2019-Nov-19 01:10 010 1 gusting 2 22.0
2019-Nov-19 01:00 360 1 gusting 2 21.9
2019-Nov-19 00:50 350 1 gusting 2 22.0
2019-Nov-19 00:40 360 1 gusting 4 21.9
2019-Nov-19 00:30 010 1 gusting 5 21.9
2019-Nov-19 00:20 030 1 gusting 5 21.8
2019-Nov-19 00:10 020 2 gusting 5 21.7
2019-Nov-19 00:00 010 2 gusting 5 21.7
2019-Nov-18 23:50 020 4 gusting 5 21.8
2019-Nov-18 23:40 030 5 gusting 6 21.9
2019-Nov-18 23:30 360 5 gusting 6 22.0
2019-Nov-18 23:20 330 5 gusting 6 22.1
2019-Nov-18 23:10 320 5 gusting 6 22.2
2019-Nov-18 23:00 320 5 gusting 7 22.0
2019-Nov-18 22:50 330 6 gusting 8 22.0
2019-Nov-18 22:40 330 6 gusting 8 22.1
2019-Nov-18 22:30 320 6 gusting 8 22.0
2019-Nov-18 22:20 330 7 gusting 9 22.1
2019-Nov-18 22:10 340 7 gusting 11 22.0
2019-Nov-18 22:00 330 7 gusting 9 22.1
2019-Nov-18 21:50 320 7 gusting 9 22.2
2019-Nov-18 21:40 330 6 gusting 8 22.2
2019-Nov-18 21:30 320 6 gusting 9 22.2
2019-Nov-18 21:20 320 7 gusting 9 22.2
2019-Nov-18 21:10 330 7 gusting 11 22.1
2019-Nov-18 21:00 330 8 gusting 12 22.0
2019-Nov-18 20:50 330 8 gusting 12 22.0
2019-Nov-18 20:40 330 8 gusting 11 22.0
2019-Nov-18 20:30 330 7 gusting 9 22.0
2019-Nov-18 20:20 320 6 gusting 9 22.0
2019-Nov-18 20:10 310 6 gusting 8 22.0
2019-Nov-18 20:00 320 7 gusting 11 21.9
2019-Nov-18 19:50 320 6 gusting 9 21.8
2019-Nov-18 19:40 320 6 gusting 8 21.7
2019-Nov-18 19:30 300 6 gusting 9 21.6
2019-Nov-18 19:20 310 6 gusting 9 21.4
2019-Nov-18 19:10 310 7 gusting 11 21.4
2019-Nov-18 19:00 320 8 gusting 12 21.4
2019-Nov-18 18:50 320 6 gusting 9 21.3
2019-Nov-18 18:40 320 6 gusting 12 21.2
2019-Nov-18 18:30 320 7 gusting 11 21.3
2019-Nov-18 18:20 320 6 gusting 11 21.2
2019-Nov-18 18:10 320 6 gusting 8 21.1
2019-Nov-18 18:00 320 6 gusting 7 21.2
2019-Nov-18 17:50 320 6 gusting 7 21.2
2019-Nov-18 17:40 330 5 gusting 9 21.4
2019-Nov-18 17:30 310 4 gusting 6 21.6
2019-Nov-18 17:20 310 4 gusting 6 21.5
2019-Nov-18 17:10 320 2 gusting 6 21.4
2019-Nov-18 17:00 290 2 gusting 6 21.5
2019-Nov-18 16:50 250 1 gusting 4 21.3
2019-Nov-18 16:40 250 2 gusting 5 21.2
2019-Nov-18 16:30 250 4 gusting 6 21.0
2019-Nov-18 16:20 260 2 gusting 6 20.8
2019-Nov-18 16:10 290 1 gusting 6 20.6
2019-Nov-18 16:00 320 2 gusting 5 20.4
2019-Nov-18 15:50 340 4 gusting 6 20.3
2019-Nov-18 15:40 340 4 gusting 6 20.1
2019-Nov-18 15:30 340 5 gusting 6 20.1
2019-Nov-18 15:20 340 6 gusting 7 20.1
2019-Nov-18 15:10 340 6 gusting 6 20.1
2019-Nov-18 15:00 340 6 gusting 7 19.9
2019-Nov-18 14:50 350 6 gusting 8 19.8
2019-Nov-18 14:40 360 6 gusting 9 19.6
2019-Nov-18 14:30 360 8 gusting 11 19.6
2019-Nov-18 14:20 360 9 gusting 13 19.5
2019-Nov-18 14:10 360 11 gusting 13 19.6
2019-Nov-18 14:00 010 12 gusting 14 19.4
2019-Nov-18 13:50 010 12 gusting 14 19.4
2019-Nov-18 13:40 350 6 gusting 13 19.8
2019-Nov-18 13:30 360 8 gusting 14 19.4
2019-Nov-18 13:20 360 12 gusting 14 19.3
2019-Nov-18 13:10 360 9 gusting 14 19.2
2019-Nov-18 13:00 360 12 gusting 13 19.0
2019-Nov-18 12:50 360 7 gusting 13 18.9
2019-Nov-18 12:40 360 11 gusting 15 18.9
2019-Nov-18 12:30 010 8 gusting 12 18.9
2019-Nov-18 12:20 020 7 gusting 13 18.6
2019-Nov-18 12:10 360 9 gusting 13 18.6
2019-Nov-18 12:00 010 11 gusting 13 18.5
2019-Nov-18 11:50 010 9 gusting 13 18.4
2019-Nov-18 11:40 360 9 gusting 13 18.4
2019-Nov-18 11:30 010 7 gusting 11 18.6
2019-Nov-18 11:20 020 7 gusting 11 18.6
2019-Nov-18 11:10 020 7 gusting 9 18.4
2019-Nov-18 11:00 360 6 gusting 7 18.4
2019-Nov-18 10:50 020 7 gusting 9 18.2
2019-Nov-18 10:40 010 6 gusting 9 18.3
2019-Nov-18 10:30 010 6 gusting 9 18.1
2019-Nov-18 10:20 010 7 gusting 12 18.0
2019-Nov-18 10:10 010 7 gusting 9 17.9
2019-Nov-18 10:00 010 7 gusting 11 17.9
2019-Nov-18 09:50 010 8 gusting 11 17.9
2019-Nov-18 09:40 350 7 gusting 12 18.0
2019-Nov-18 09:30 010 8 gusting 12 18.0
2019-Nov-18 09:20 010 7 gusting 12 18.1
2019-Nov-18 09:10 010 8 gusting 12 18.1
2019-Nov-18 09:00 010 8 gusting 13 18.2
2019-Nov-18 08:50 010 8 gusting 11 18.3
2019-Nov-18 08:40 360 7 gusting 11 18.3
2019-Nov-18 08:30 010 7 gusting 11 18.2
2019-Nov-18 08:20 020 6 gusting 12 18.2
2019-Nov-18 08:10 020 6 gusting 11 18.1
2019-Nov-18 08:00 010 8 gusting 13 18.2
2019-Nov-18 07:50 020 9 gusting 12 18.3
2019-Nov-18 07:40 020 9 gusting 13 18.2
2019-Nov-18 07:30 020 9 gusting 13 18.3
2019-Nov-18 07:20 010 12 gusting 14 18.4
2019-Nov-18 07:10 010 11 gusting 13 18.4
2019-Nov-18 07:00 020 9 gusting 12 18.3
2019-Nov-18 06:50 020 8 gusting 12 18.4
2019-Nov-18 06:40 020 8 gusting 12 18.6
2019-Nov-18 06:30 010 7 gusting 13 18.7
2019-Nov-18 06:20 010 8 gusting 12 18.6
2019-Nov-18 06:10 010 7 gusting 12 18.6
2019-Nov-18 06:00 020 7 gusting 11 18.5
2019-Nov-18 05:50 010 7 gusting 11 18.6
2019-Nov-18 05:40 360 6 gusting 9 18.4
2019-Nov-18 05:30 360 6 gusting 11 18.5
2019-Nov-18 05:20 020 6 gusting 9 18.5
2019-Nov-18 05:10 010 6 gusting 11 18.5
2019-Nov-18 05:00 020 6 gusting 12 18.5
2019-Nov-18 04:50 020 7 gusting 12 18.5
2019-Nov-18 04:40 030 8 gusting 13 18.5
2019-Nov-18 04:30 030 11 gusting 13 18.3
2019-Nov-18 04:20 030 11 gusting 13 18.5
2019-Nov-18 04:10 030 9 gusting 13 18.7
2019-Nov-18 04:00 030 7 gusting 13 18.6
2019-Nov-18 03:50 020 8 gusting 12 18.5
2019-Nov-18 03:40 030 9 gusting 12 18.5
2019-Nov-18 03:30 030 11 gusting 14 18.4
2019-Nov-18 03:20 020 11 gusting 14 18.3
2019-Nov-18 03:10 020 11 gusting 13 18.4
2019-Nov-18 03:00 040 11 gusting 13 18.4
2019-Nov-18 02:50 040 12 gusting 18 18.5
2019-Nov-18 02:40 040 12 gusting 14 18.4
2019-Nov-18 02:30 030 13 gusting 15 18.5
2019-Nov-18 02:20 020 14 gusting 17 18.6
2019-Nov-18 02:10 010 15 gusting 20 18.7
2019-Nov-18 02:00 360 18 gusting 21 19.0
2019-Nov-18 01:50 360 19 gusting 21 19.2
2019-Nov-18 01:40 360 18 gusting 21 19.4
2019-Nov-18 01:30 360 17 gusting 20 19.5
2019-Nov-18 01:20 360 15 gusting 21 20.0
2019-Nov-18 01:10 360 17 gusting 20 20.2
2019-Nov-18 01:00 360 15 gusting 19 20.5
2019-Nov-18 00:50 350 13 gusting 17 20.5
2019-Nov-18 00:40 350 14 gusting 19 20.6
2019-Nov-18 00:30 360 14 gusting 19 20.7
2019-Nov-18 00:20 340 13 gusting 18 20.9
2019-Nov-18 00:10 340 14 gusting 19 20.8
2019-Nov-18 00:00 330 14 gusting 19 20.7
2019-Nov-17 23:50 340 14 gusting 19 20.6
2019-Nov-17 23:40 330 14 gusting 20 20.6
2019-Nov-17 23:30 340 14 gusting 20 20.6
2019-Nov-17 23:20 340 15 gusting 20 20.5
2019-Nov-17 23:10 340 17 gusting 20 20.6
2019-Nov-17 23:00 340 14 gusting 19 20.4
2019-Nov-17 22:50 330 15 gusting 20 20.3
2019-Nov-17 22:40 340 15 gusting 24 20.3
2019-Nov-17 22:30 330 13 gusting 21 20.3
2019-Nov-17 22:20 320 9 gusting 20 20.2
2019-Nov-17 22:10 280 6 gusting 21 20.2
2019-Nov-17 22:00 300 8 gusting 19 20.2
2019-Nov-17 21:50 310 9 gusting 19 20.2
2019-Nov-17 21:40 320 13 gusting 20 20.2
2019-Nov-17 21:30 330 15 gusting 20 20.3
2019-Nov-17 21:20 330 17 gusting 20 20.3
2019-Nov-17 21:10 330 15 gusting 20 20.3
2019-Nov-17 21:00 330 17 gusting 20 20.2
2019-Nov-17 20:50 330 17 gusting 21 20.4
2019-Nov-17 20:40 330 17 gusting 20 20.3
2019-Nov-17 20:30 330 18 gusting 21 20.5
2019-Nov-17 20:20 330 19 gusting 22 20.5
2019-Nov-17 20:10 340 18 gusting 22 20.4
2019-Nov-17 20:00 330 19 gusting 24 20.4
2019-Nov-17 19:50 340 18 gusting 22 20.4
2019-Nov-17 19:40 330 18 gusting 21 20.3
2019-Nov-17 19:30 330 17 gusting 24 20.2
2019-Nov-17 19:20 330 18 gusting 21 20.1
2019-Nov-17 19:10 340 19 gusting 24 20.1
2019-Nov-17 19:00 330 19 gusting 24 20.0
2019-Nov-17 18:50 340 19 gusting 22 20.0
2019-Nov-17 18:40 330 19 gusting 22 20.0
2019-Nov-17 18:30 330 19 gusting 22 20.0
2019-Nov-17 18:20 330 19 gusting 24 20.0
2019-Nov-17 18:10 330 19 gusting 22 19.9
2019-Nov-17 18:00 330 19 gusting 22 19.8
2019-Nov-17 17:50 340 18 gusting 22 19.7
2019-Nov-17 17:40 340 18 gusting 21 19.5
2019-Nov-17 17:30 350 18 gusting 21 19.1
2019-Nov-17 17:20 350 17 gusting 20 18.8
2019-Nov-17 17:10 350 15 gusting 19 18.8
2019-Nov-17 17:00 350 15 gusting 20 18.8
2019-Nov-17 16:50 350 15 gusting 20 19.0
2019-Nov-17 16:40 350 15 gusting 20 19.1
2019-Nov-17 16:30 350 13 gusting 18 18.7
2019-Nov-17 16:20 360 14 gusting 20 18.6
2019-Nov-17 16:10 360 13 gusting 20 18.6
2019-Nov-17 16:00 010 14 gusting 18 18.4
2019-Nov-17 15:50 360 14 gusting 19 18.5
2019-Nov-17 15:40 360 14 gusting 19 18.6
2019-Nov-17 15:30 010 15 gusting 20 18.6
2019-Nov-17 15:20 010 14 gusting 18 18.9
2019-Nov-17 15:10 010 14 gusting 19 18.9
2019-Nov-17 15:00 010 14 gusting 19 19.0